Location: Andiroba
(19.8650°S, 43.9258°W)
Time: 00:17:13
(UTC+00:00)

Cosmos 1420 Rocket - Pass Details

Date: 15 June 2024
Orbit: 752 x 778 km, 74.0° (Epoch: 24 July)

Event Time Altitude Azimuth Distance (km) Brightness Sun altitude
Exits shadow 08:04:02 36° 237° (WSW) 1,200 4.5 -19.3°
Maximum altitude 08:05:35 47° 281° (W) 1,013 4.2 -18.9°
Drops below altitude 10° 08:10:33 10° 354° (N) 2,296 6.6 -17.8°
Sets 08:13:00 0° 360° (N) 3,220 7.5 -17.3°
